Home > Weather > Merida > Past weeks

Flag for Mexico Weather for the Past 2 Weeks in Merida, Yucatán, Mexico

Now
66 °F

Passing clouds.


Feels Like: 66 °F
Forecast: 59 / 73 °F
Wind: 5 mph from Northwest

Location: Aerop. Internacional Merida - Yuc

Current Time: Feb 6, 2016 at 10:41:55 PM

Latest Report: Feb 6, 2016 at 9:46 PM


Visibility: 7 mi

Pressure: 30.23 "Hg

Humidity: 73%

Dew point: 57 °F

Location of MeridaLocation

Historic Weather in Merida — Graph

°F

Merida Temperature Yesterday

Maximum temperature yesterday: 72 °F (at 9:47 AM)
Minimum temperature yesterday: 66 °F (at 3:24 PM)
Average temperature yesterday: 68 °F

High & Low Weather Summary for the Past Weeks

 TemperatureHumidityPressure
High95 °F (Feb 2, 12:48 PM)100% (Jan 27, 4:46 AM)30.25 "Hg (Jan 27, 4:46 AM)
Low52 °F (Jan 25, 5:47 AM)32% (Jan 30, 3:44 PM)29.75 "Hg (Feb 2, 1:46 PM)
Average72 °F74%30.03 "Hg
* Reported Jan 22 8:46 PM — Feb 6 8:46 PM, Merida, Weather by CustomWeather, © 2016

Note: Actual official high and low records may vary slightly from our data, if they occured in-between our weather recording intervals... More about our weather records

Advertising

Merida Weather History for the Previous 24 Hours

 ConditionsComfort  
Time TempWeatherWind HumidityBarometerVisibility
8:46 PM
Sat, Feb 6
66 °FPassing clouds.5 mph78%30.21 "Hg7 mi
7:49 PM66 °FClear.5 mph78%30.21 "Hg7 mi
6:45 PM68 °FClear.7 mph73%30.20 "Hg7 mi
5:49 PM70 °FPartly sunny.7 mph64%30.17 "Hg7 mi
4:47 PM70 °FMostly cloudy.14 mph69%30.18 "Hg7 mi
4:08 PM70 °FMostly cloudy.7 mph78%30.17 "Hg6 mi
2:42 PM70 °FMore clouds than sun.9 mph88%30.19 "Hg6 mi
1:45 PM70 °FMore clouds than sun.10 mph83%30.18 "Hg6 mi
1:15 PM68 °FMore clouds than sun.13 mph88%30.18 "Hg6 mi
11:42 AM68 °FRain. Overcast.13 mph88%30.20 "Hg2 mi
10:44 AM73 °FMostly cloudy.12 mph74%30.21 "Hg6 mi
10:06 AM73 °FMostly cloudy.15 mph74%30.21 "Hg6 mi
8:45 AM72 °FMostly cloudy.6 mph83%30.18 "Hg6 mi
7:47 AM68 °FMostly cloudy.No wind88%30.16 "Hg6 mi
6:45 AM68 °FMostly cloudy.No wind94%30.14 "Hg6 mi
5:45 AM68 °FOvercast.No wind94%30.11 "Hg6 mi
3:42 AM68 °FOvercast.No wind94%30.11 "Hg6 mi
2:44 AM66 °FOvercast.No wind94%30.11 "Hg6 mi
1:45 AM66 °FOvercast.No wind94%30.12 "Hg6 mi
12:42 AM68 °FOvercast.No wind94%30.13 "Hg6 mi
11:46 PM
Fri, Feb 5
68 °FOvercast.No wind88%30.12 "Hg7 mi
Weather by CustomWeather, © 2016

See weather overviewHow to use our weather pages